Regional Weather Roundup
Issued by NWS

Home | Current Version | Previous Version | Text Only | Print | Product List | Glossary On
Versions: 1 2 3 4 5 6 7 8 9 10 11 12 13 14 15 16 17 18 19 20 21 22 23 24 25 26 27
000
ASUS45 KBOI 220810
RWRID

IDAHO REGIONAL WEATHER ROUNDUP
NATIONAL WEATHER SERVICE BOISE ID
200 AM MDT FRI SEP 22 2017

NOTE: "FAIR" INDICATES FEW OR NO CLOUDS BELOW 12000 FEET
WITH NO SIGNIFICANT WEATHER AND/OR OBSTRUCTIONS TO VISIBILITY

IDZ012-014-220900-
SOUTHWEST IDAHO


CITY           SKY/WX    TMP DP  RH WIND       PRES   REMARKS
BOISE          PTCLDY    46  38  73 NW10      29.84R
CALDWELL       PTCLDY    43  37  79 SW5       29.87R
MOUNTAIN HOME  PTCLDY    37  37  99 W6        29.85R WCI  32
$$

IDZ016-017-220900-
SOUTHCENTRAL IDAHO


CITY           SKY/WX    TMP DP  RH WIND       PRES   REMARKS
BURLEY         LGT RAIN  43  40  89 SW6       29.83R
JEROME         CLOUDY    41  38  89 S7        29.84R
TWIN FALLS     CLOUDY    42  38  85 SW10      29.84R
$$

IDZ019>023-220900-
SOUTHEAST IDAHO


CITY           SKY/WX    TMP DP  RH WIND       PRES   REMARKS
IDAHO FALLS    CLOUDY    41  40  96 SW9       29.81F
POCATELLO      LGT RAIN  41  40  96 S9        29.83S
REXBURG        LGT RAIN  39  38  96 SW6       29.81R WCI  35
$$

IDZ006-010-011-018-031-032-220900-
CENTRAL IDAHO MOUNTAINS


CITY           SKY/WX    TMP DP  RH WIND       PRES   REMARKS
MCCALL         CLOUDY    39  32  76 N8        29.82S WCI  33
HAILEY         CLOUDY    36  36 100 S3        29.84R
STANLEY          N/A     34  33  96 CALM      29.81S
SALMON         CLOUDY    44  37  76 CALM      29.84R
CHALLIS        CLOUDY    41  34  76 NW7       29.81R
$$

IDZ002-004-006-007-026-220900-
NORTHERN IDAHO


CITY           SKY/WX    TMP DP  RH WIND       PRES   REMARKS
LEWISTON       CLEAR     43  40  89 S5        29.93S
LOWELL           N/A     43  40  89 CALM      29.96R
COEUR D`ALENE  PTCLDY    40  39  97 NE8       29.97S WCI  34
MULLAN PASS    MOCLDY    31  29  92 N5        29.92R FOG     WCI  26
$$




USA.gov is the U.S. government's official web portal to all federal, state and local government web resources and services.